Regional Weather Roundup
Issued by NWS

Home | Current Version | Previous Version | Graphics & Text | Print | Product List | Glossary On
Versions: 1 2 3 4 5 6 7 8 9 10 11 12 13 14 15 16 17 18 19 20 21 22 23 24 25 26 27 28 29 30 31 32 33 34 35 36 37 38 39 40 41 42 43 44 45 46 47 48 49 50
591
ASUS43 KDTX 281401
RWRMI
MICHIGAN HOURLY REGIONAL WEATHER ROUNDUP
NATIONAL WEATHER SERVICE DETROIT/PONTIAC MI
1000 AM EDT WED SEP 28 2016

NOTE: "FAIR" INDICATES FEW OR NO CLOUDS BELOW 12,000 FEET WITH NO
SIGNIFICANT WEATHER AND/OR OBSTRUCTION TO VISIBILITY.

MIZ047>049-052>055-059>063-066>070-074>076-081>083-281500-
SOUTHEAST LOWER MICHIGAN

CITY           SKY/WX    TMP DP  RH WIND       PRES   REMARKS
ADRIAN         CLOUDY    55  50  83 SE5       29.88R
ALMA           CLOUDY    56  52  88 N8        29.92R
ANN ARBOR      CLOUDY    56  50  80 E6        29.88R
CARO           SUNNY     61  47  59 NE6       29.92R
DETROIT CITY   CLOUDY    55  50  83 CALM      29.90R
DETROIT        RAIN      59  46  62 SE14G30   29.93R
FLINT          SUNNY     59  46  62 NE10      29.90R
GROSSE ILE     LGT RAIN  59  47  64 SW10      29.89R
HILLSDALE      PTSUNNY   55  46  71 E7        29.85R
HOWELL         MOSUNNY   56  48  74 NE6       29.88R

CITY           SKY/WX    TMP DP  RH WIND       PRES   REMARKS
JACKSON        CLOUDY    55  49  80 E6        29.87R
LAMBERTVILLE   RAIN      55  50  85 SE12G20   29.88R
LANSING        MOSUNNY   55  45  68 NE12      29.89R
LAPEER         FAIR      59  46  63 NE8       29.90R
MASON          CLOUDY    57  47  68 NE12G18   29.88R
MONROE         RAIN      56  53  89 CALM      29.89R
MT. CLEMENS    PTSUNNY   56  49  78 N3        29.87R
PONTIAC        PTSUNNY   57  48  72 E7        29.89R
PORT HURON     MOSUNNY   57  52  82 CALM      29.90R
TRI CITIES     MOSUNNY   59  52  77 NE9       29.93R
MIDLAND        CLOUDY    56  51  84 NE5       29.92R
TROY           CLOUDY    58  45  61 NE3       29.91R
SAGINAW HB     CLOUDY    61  48  63 NE9       29.91R
$$
MIZ043>046-050>051-056>058-064>065-071>073-077>080-281500-
SOUTHWEST LOWER MICHIGAN

CITY           SKY/WX    TMP DP  RH WIND       PRES   REMARKS
BATTLE CREEK   CLOUDY    54  45  71 NE13      29.84R
BENTON HARBOR  CLOUDY    54  50  86 CALM      29.84R
BIG RAPIDS     CLOUDY    54  52  95 E3        29.92R
COLDWATER      CLOUDY    54  47  77 E7        29.83R
FREMONT        CLOUDY    52  51  96 E7        29.89R
HOLLAND        CLOUDY    54  51  90 NE5       29.86R
GRAND RAPIDS   CLOUDY    52  48  86 NE13      29.87R
IONIA          PTSUNNY   53  48  83 NE9       29.88R
KALAMAZOO      CLOUDY    55  44  66 VRB6      29.84R
LUDINGTON      CLOUDY    52  52  98 E5        29.89R
MARSHALL       CLOUDY    53  46  75 E6        29.84S
MOUNT PLEASANT PTSUNNY   55  53  93 NE7       29.92R
MUSKEGON       CLOUDY    53  50  89 NE7       29.87R
SOUTH HAVEN    CLOUDY    54  52  94 NE6       29.84R
$$
MIZ016>042-281500-
NORTHERN LOWER MICHIGAN

CITY           SKY/WX    TMP DP  RH WIND       PRES   REMARKS
ALPENA         PTSUNNY   58  52  80 N3        29.99R
BEAVER ISLAND  MOSUNNY   56  51  83 E8        29.98R
BELLAIRE       PTSUNNY   55  52  90 NE6       29.97R
CADILLAC       PTSUNNY   49  47  94 E10       29.93R
CHARLEVOIX     PTSUNNY   54  52  95 SE5       30.01R
FRANKFORT      PTSUNNY   54  51  89 E5        29.93R
GAYLORD        CLOUDY    53  48  83 SE7       29.98R
GRAYLING       CLOUDY    51  50  98 E3        29.98R FOG
HARBOR SPRINGS PTSUNNY   53  51  94 E5        29.99R
HOUGHTON LAKE  CLOUDY    51  49  92 NE6       29.96R
MANISTEE       PTSUNNY   54  51  90 VRB6      29.91R
OSCODA         MOSUNNY   55  52  91 N5        29.96R
PELLSTON       PTSUNNY   55  50  83 E5        29.99R
ROGERS CITY    CLOUDY    55  52  92 CALM      30.00R
TRAVERSE CITY  CLOUDY    56  50  80 VRB5      29.94R
$$
MIZ007>008-015-281500-
EASTERN UPPER MICHIGAN

CITY           SKY/WX    TMP DP  RH WIND       PRES   REMARKS
KINROSS        CLOUDY    55  53  93 NE10      30.01R
MACKINAC ISLAN MOSUNNY   56  56 100 SE3       30.00R
NEWBERRY       CLOUDY    51  50  97 NE5       30.01R FOG
S. S. MARIE    CLOUDY    57  53  86 VRB5      30.01R
MUNISING         N/A     57  52  83 NE3       30.02R
$$
MIZ004>006-011>014-085-281500-
CENTRAL UPPER MICHIGAN

CITY           SKY/WX    TMP DP  RH WIND       PRES   REMARKS
MANISTIQUE     MOSUNNY   54  52  92 NE7       29.99R
ESCANABA       MOSUNNY   55  52  89 NE9       29.98R
MENOMINEE      PTSUNNY   52  51  97 N9        29.96R
$$
MIZ001>003-009>011-084-281500-
WESTERN UPPER MICHIGAN

CITY           SKY/WX    TMP DP  RH WIND       PRES   REMARKS
IRON MOUNTAIN  CLOUDY    52  48  86 NE7       29.99R
HOUGHTON       MOSUNNY   56  51  84 NE9       30.06R
COPPER HARBOR    N/A     57  53  86 E12G24    30.07R
IRONWOOD       PTSUNNY   55  52  89 NE9       30.07R
$$

ABBREVIATIONS USED IN REMARKS
   TC - TEMPERATURE IN CELSIUS
  WCI - WIND CHILL INDEX
   HX - HEAT INDEX
  VSB - VISIBILITY





USA.gov is the U.S. government's official web portal to all federal, state and local government web resources and services.